Flag for France

Past Weather in La Rochelle, Nouvelle-Aquitaine, France — Yesterday and Last 2 Weeks

Now
68 °F

Sunny.


Feels Like: 68 °F
Forecast: 74 / 54 °F
Wind: 20 mph from Northwest

Location: La Rochelle Airport

Current Time: Jul 6, 2020 at 7:29:09 pm

Latest Report: Jul 6, 2020 at 7:00 pm


Visibility: 10 mi

Pressure: 30.21 "Hg

Humidity: 69%

Dew Point: 57 °F

Location of La RochelleLocation

Past Weather in La Rochelle — Graph

°F

La Rochelle Temperature Yesterday

Maximum temperature yesterday: 72 °F (at 3:30 pm)
Minimum temperature yesterday: 64 °F (at 12:00 am)
Average temperature yesterday: 66 °F

High & Low Weather Summary for the Past Weeks

 TemperatureHumidityPressure
High84 °F (Jun 23, 4:00 pm)100% (Jul 5, 5:30 am)30.33 "Hg (Jul 5, 5:30 am)
Low55 °F (Jun 22, 6:00 am)31% (Jun 23, 5:00 pm)29.86 "Hg (Jul 1, 4:30 am)
Average67 °F73%30.08 "Hg
* Reported Jun 21 6:00 pm — Jul 6 6:00 pm, La Rochelle. Weather by CustomWeather, © 2020

Note: Actual official high and low records may vary slightly from our data, if they occured in-between our weather recording intervals... More about our weather records

La Rochelle Weather History for the Previous 24 Hours

Scroll right to see more
 ConditionsComfort  
Time TempWeatherWind HumidityBarometerVisibility
6:00 pm
Mon, Jul 6
68 °FSunny.18 mph64%30.21 "Hg10 mi
5:30 pm68 °FClear.21 mph64%30.24 "HgN/A
5:00 pm68 °FSunny.21 mph60%30.24 "Hg10 mi
4:30 pm68 °FSunny.20 mph56%30.24 "Hg10 mi
4:00 pm68 °FSunny.20 mph56%30.24 "Hg10 mi
3:30 pm68 °FSunny.16 mph56%30.24 "Hg10 mi
3:00 pm68 °FSunny.15 mph56%30.24 "Hg10 mi
2:30 pm68 °FSunny.13 mph53%30.24 "Hg10 mi
2:00 pm68 °FPassing clouds.10 mph49%30.24 "HgN/A
1:30 pm66 °FPassing clouds.10 mph52%30.24 "HgN/A
1:00 pm66 °FPassing clouds.10 mph52%30.27 "HgN/A
12:30 pm66 °FPassing clouds.10 mph52%30.27 "HgN/A
12:00 pm64 °FScattered clouds.10 mph60%30.27 "HgN/A
11:30 am64 °FPartly sunny.10 mph56%30.27 "HgN/A
11:00 am64 °FPartly sunny.12 mph60%30.24 "HgN/A
10:30 am64 °FPartly sunny.12 mph60%30.24 "HgN/A
10:00 am63 °FPassing clouds.13 mph59%30.24 "HgN/A
9:30 am61 °FSunny.10 mph68%30.24 "Hg10 mi
8:30 am59 °FOvercast.13 mph77%30.24 "HgN/A
8:00 am59 °FOvercast.12 mph77%30.24 "HgN/A
7:30 am57 °FOvercast.13 mph82%30.21 "HgN/A
7:00 am57 °FOvercast.13 mph82%30.21 "HgN/A
6:30 am57 °FOvercast.15 mph82%30.21 "HgN/A
6:00 am59 °FOvercast.13 mph82%30.18 "HgN/A
5:30 am59 °FPassing clouds.14 mph82%30.18 "HgN/A
5:00 am59 °FPassing clouds.15 mph77%30.18 "HgN/A
4:30 am59 °FPassing clouds.16 mph77%30.18 "HgN/A
4:00 am61 °FPassing clouds.16 mph72%30.18 "HgN/A
3:30 am61 °FPassing clouds.16 mph77%30.18 "HgN/A
3:00 am63 °FOvercast.16 mph73%30.18 "HgN/A
2:30 am63 °FPassing clouds.14 mph73%30.18 "HgN/A
2:00 am63 °FPassing clouds.15 mph77%30.18 "HgN/A
1:30 am63 °FMostly cloudy.17 mph83%30.18 "HgN/A
1:00 am63 °FMostly cloudy.15 mph88%30.18 "HgN/A
12:30 am64 °FMostly cloudy.14 mph88%30.18 "HgN/A
12:00 am64 °FMostly cloudy.10 mph94%30.18 "HgN/A
11:30 pm
Sun, Jul 5
64 °FPassing clouds.14 mph94%30.18 "Hg4 mi
11:00 pm64 °FMostly cloudy.10 mph88%30.18 "HgN/A
10:30 pm66 °FMostly cloudy.10 mph83%30.18 "HgN/A
10:00 pm66 °FMostly cloudy.14 mph83%30.15 "HgN/A
9:30 pm66 °FMostly cloudy.15 mph83%30.15 "HgN/A
9:00 pm66 °FOvercast.14 mph83%30.15 "HgN/A
8:30 pm64 °FMostly cloudy.12 mph88%30.15 "HgN/A
8:00 pm66 °FLow clouds.10 mph83%30.15 "HgN/A
7:30 pm66 °FLow clouds.12 mph83%30.15 "HgN/A
7:00 pm66 °FOvercast.12 mph83%30.15 "HgN/A
Weather by CustomWeather, © 2020

See weather overview